Location: Boiro
(42.6475°N, 8.8834°W)
Time: 14:10:53
(UTC+01:00)

Envisat - Pass Details

Date: 27 October 2021
Orbit: 764 x 766 km, 98.2° (Epoch: 07 December)

Event Time Altitude Azimuth Distance (km) Brightness Sun altitude
Rises 07:46:32 0° 12° (NNE) 3,242 6.4 -14.7°
Reaches altitude 10° 07:48:51 10° 13° (NNE) 2,311 5.6 -14.3°
Maximum altitude 07:53:58 88° 284° (WNW) 771 3.0 -13.3°
Drops below altitude 10° 07:59:02 10° 195° (SSW) 2,293 5.4 -12.4°
Sets 08:01:19 0° 195° (SSW) 3,215 6.1 -12.0°
